Regional Weather Roundup
Issued by NWS

Home | Current Version | Previous Version | Graphics & Text | Print | Product List | Glossary On
Versions: 1 2 3 4 5 6 7 8 9 10 11 12 13 14 15 16 17 18 19 20 21 22 23 24 25 26 27 28 29 30 31 32 33 34 35 36 37 38 39 40 41 42 43 44 45 46 47 48 49 50
000
ASUS45 KCYS 211710
RWRWY

WYOMING REGIONAL WEATHER ROUNDUP
NATIONAL WEATHER SERVICE CHEYENNE WY
1100 AM MDT SAT APR 21 2018

NOTE:  "FAIR" INDICATES FEW OR NO CLOUDS BELOW 12,000 FEET
WITH NO SIGNIFICANT WEATHER AND/OR OBSTRUCTIONS TO VISIBILITY.

WYZ001-211800-
YELLOWSTONE NATIONAL PARK

CITY           SKY/WX    TMP DP  RH WIND       PRES   REMARKS
LK YELLOWSTONE   N/A     34  23  64 CALM      30.24S
W YELLOWSTONE  NOT AVBL

$$
WYZ002>013-054>058-071-098>099-211800-
NORTHERN WYOMING

CITY           SKY/WX    TMP DP  RH WIND       PRES   REMARKS
JACKSON        FAIR      49  26  41 VRB3      30.20F
CODY           FAIR      58  29  33 VRB5      30.09F
GREYBULL         N/A    N/A N/A N/A MISG      30.08F
WORLAND        FAIR      56  35  45 VRB3      30.08F
SHERIDAN       FAIR      57  39  51 VRB3      30.06F
BUFFALO        FAIR      55  37  50 SE12      30.10S
GILLETTE       FAIR      48  36  63 SE16      30.12S
HULETT         FAIR      46  34  61 SW17      30.15F
NEWCASTLE      CLOUDY    41  34  75 S13G21    30.20S

$$
WYZ014>020-022>026-101>103-211800-
CENTRAL WYOMING

CITY           SKY/WX    TMP DP  RH WIND       PRES   REMARKS
BIG PINEY      FAIR      49  30  48 NE5       30.19F
PINEDALE       FAIR      45  30  57 CALM      30.19F
DUBOIS         FAIR      54  18  24 NW16G23   30.14S
LANDER         FAIR      53  34  48 CALM      30.11F
RIVERTON       FAIR      50  33  52 CALM      30.13S
CASPER         FAIR      48  39  71 S9G17     30.13F
DOUGLAS        CLOUDY    41  36  82 VRB5      30.17S

$$
WYZ021-027>030-104>119-211800-
SOUTHERN WYOMING

CITY           SKY/WX    TMP DP  RH WIND       PRES   REMARKS
EVANSTON       FAIR      53  26  35 NW7       30.22F
KEMMERER       FAIR      52  21  30 W12G26    30.21R
FORT BRIDGER   FAIR      56  24  29 NW14      30.23F
ROCK SPRINGS   FAIR      49  32  52 W10       30.18F
DIXON          CLOUDY    42  31  65 W3        30.21S
RAWLINS          N/A    N/A N/A N/A MISG      30.16S
SARATOGA       CLOUDY    34  34 100 S3        30.19S
LARAMIE        CLOUDY    29  29 100 S5        30.16S WCI  24
CHEYENNE       LGT SNOW  34  32  92 NW3       30.17S VSB 1
TORRINGTON     LGT SNOW  35  35 100 E6        30.21S FOG     WCI  30
PINE BLUFFS    CLOUDY    34  34 100 MISG      30.20S

$$



USA.gov is the U.S. government's official web portal to all federal, state and local government web resources and services.